Home   Weather   Rhodes   Past weeks

Flag for Greece Past Weather in Rhodes, Rhodes, Greece — Yesterday and Last 2 Weeks

Now
72 °F

Clear.


Feels Like: 75 °F
Forecast: 72 / 79 °F
Wind: 12 mph from Northwest

Location: Rhodes Airport

Current Time: Sep 28, 2016 at 6:36:03 AM

Latest Report: Sep 28, 2016 at 5:50 AM


Visibility: 10 mi

Pressure: 30.01 "Hg

Humidity: 65%

Dew Point: 59 °F

Location of RhodesLocation

Past Weather in Rhodes — Graph

°F

Rhodes Temperature Yesterday

Maximum temperature yesterday: 77 °F (at 10:50 AM)
Minimum temperature yesterday: 68 °F (at 1:50 AM)
Average temperature yesterday: 73 °F

High & Low Weather Summary for the Past Weeks

 TemperatureHumidityPressure
High86 °F (Sep 16, 3:50 PM)94% (Sep 20, 10:20 AM)30.04 "Hg (Sep 20, 10:20 AM)
Low64 °F (Sep 24, 7:50 AM)28% (Sep 24, 1:50 PM)29.71 "Hg (Sep 20, 2:20 PM)
Average76 °F62%29.88 "Hg
* Reported Sep 13 5:20 AM — Sep 28 5:20 AM, Rhodes, Weather by CustomWeather, © 2016

Note: Actual official high and low records may vary slightly from our data, if they occured in-between our weather recording intervals... More about our weather records

Advertising

Rhodes Weather History for the Previous 24 Hours

Scroll right to see more
 ConditionsComfort  
Time TempWeatherWind HumidityBarometerVisibility
5:20 AM
Wed, Sep 28
72 °FClear.9 mph65%30.01 "Hg10 mi
4:50 AM72 °FClear.12 mph65%30.01 "Hg10 mi
4:20 AM72 °FClear.14 mph61%30.01 "Hg10 mi
3:50 AM72 °FClear.14 mph61%30.01 "Hg10 mi
2:50 AM73 °FClear.13 mph57%30.01 "Hg10 mi
2:20 AM73 °FClear.14 mph61%30.01 "Hg10 mi
1:50 AM73 °FClear.14 mph61%30.01 "Hg10 mi
12:50 AM73 °FClear.13 mph65%30.01 "Hg10 mi
12:20 AM73 °FClear.12 mph65%30.01 "Hg10 mi
11:50 PM
Tue, Sep 27
73 °FClear.13 mph65%30.01 "Hg10 mi
11:20 PM73 °FClear.13 mph65%30.04 "Hg10 mi
10:50 PM73 °FClear.10 mph65%30.01 "Hg10 mi
10:20 PM73 °FClear.10 mph65%30.01 "Hg10 mi
9:50 PM73 °FClear.12 mph65%30.01 "Hg10 mi
9:20 PM73 °FClear.12 mph61%30.01 "Hg10 mi
8:50 PM73 °FClear.9 mph61%30.01 "Hg10 mi
8:20 PM75 °FClear.10 mph61%29.98 "Hg10 mi
7:50 PM75 °FClear.12 mph61%29.98 "Hg10 mi
7:20 PM75 °FClear.12 mph57%29.98 "Hg10 mi
6:50 PM75 °FSunny.12 mph57%29.98 "Hg10 mi
6:20 PM77 °FPassing clouds.10 mph54%29.98 "HgN/A
5:50 PM77 °FPassing clouds.14 mph54%29.98 "HgN/A
5:20 PM77 °FPassing clouds.15 mph54%29.98 "HgN/A
4:50 PM77 °FPassing clouds.15 mph54%29.98 "HgN/A
4:20 PM77 °FPassing clouds.16 mph54%29.98 "HgN/A
3:50 PM77 °FPassing clouds.16 mph54%29.98 "HgN/A
3:20 PM77 °FPassing clouds.15 mph54%29.98 "HgN/A
2:20 PM77 °FPassing clouds.16 mph51%29.98 "HgN/A
1:50 PM77 °FPassing clouds.15 mph51%29.98 "HgN/A
1:20 PM77 °FSunny.15 mph54%29.98 "Hg10 mi
12:50 PM77 °FSunny.14 mph54%29.98 "Hg10 mi
12:20 PM77 °FSunny.13 mph51%29.98 "Hg10 mi
11:50 AM77 °FSunny.9 mph51%29.98 "Hg10 mi
11:20 AM77 °FSunny.13 mph51%29.98 "Hg10 mi
10:50 AM77 °FSunny.12 mph51%29.98 "Hg10 mi
10:20 AM75 °FSunny.7 mph57%29.98 "Hg10 mi
9:50 AM75 °FSunny.7 mph57%29.95 "Hg10 mi
9:20 AM72 °FSunny.7 mph61%29.95 "Hg10 mi
8:50 AM72 °FSunny.5 mph61%29.95 "Hg10 mi
8:20 AM70 °FSunny.5 mph64%29.95 "Hg10 mi
7:50 AM70 °FSunny.5 mph64%29.92 "Hg10 mi
7:20 AM70 °FSunny.5 mph57%29.92 "Hg10 mi
6:50 AM70 °FClear.3 mph57%29.92 "Hg10 mi
6:20 AM68 °FClear.No wind60%29.89 "Hg10 mi
Weather by CustomWeather, © 2016

See weather overviewHow to use our weather pages